Regional Weather Roundup
Issued by NWS

Home | Current Version | Previous Version | Text Only | Print | Product List | Glossary Off
Versions: 1 2 3 4 5 6 7 8 9 10 11 12 13 14 15 16 17 18 19 20 21 22 23 24 25 26 27 28 29 30 31 32 33 34 35 36 37 38 39 40 41 42 43 44 45 46 47 48 49 50

000
ASUS45 KTFX 291910
RWRMT
MONTANA REGIONAL WEATHER ROUNDUP
NATIONAL WEATHER SERVICE GREAT FALLS MT
100 PM MDT WED MAR 29 2017

NOTE: "FAIR" INDICATES FEW OR NO CLOUDS BELOW 12000 FEET WITH NO
SIGNIFICANT WEATHER AND/OR OBSTRUCTIONS TO VISIBILITY.

MTZ001>007-043-292000-
WEST OF THE DIVIDE

CITY           SKY/WX    TMP DP  RH WIND       PRES   REMARKS
KALISPELL      LGT RAIN  41  38  89 SE10      29.95F
MISSOULA       CLOUDY    46  39  76 E13       29.99F
BUTTE          CLOUDY    46  26  45 S6        30.01F
MULLAN PASS    SNOW      33  31  92 VRB5      29.91F VSB 1/4
ANACONDA         N/A     45  30  57 S17G28    29.99F
DEER LODGE       N/A     48  32  53 S12       29.99F
EUREKA           N/A     45  37  76 SE17G23   29.92F
HAMILTON         N/A     52  34  50 SE16G24   29.98F
PLAINS           N/A     44  36  73 CALM      29.97F
RONAN            N/A     46  39  76 SE7       30.00F
$$

MTZ008-052>055-292000-
SOUTHWEST MONTANA

CITY           SKY/WX    TMP DP  RH WIND       PRES   REMARKS
BOZEMAN        CLOUDY    49  30  48 SW7G17    30.03F
DILLON         CLOUDY    50  27  40 SW7       30.01F
W YELLOWSTONE  CLOUDY    32  25  74 SW10      30.16F WCI  24
ENNIS          MOSUNNY   46  28  49 S28G37    30.09F
THREE FORKS      N/A     50  50 100 SW5       30.01F
TWIN BRIDGES     N/A     52  24  33 SE10      30.00F
$$

MTZ009-010-012-014-046-048-049-054-292000-
EAST SLOPES AND CENTRAL MONTANA

CITY           SKY/WX    TMP DP  RH WIND       PRES   REMARKS
CUT BANK       CLOUDY    46  28  49 SE9       29.90F
GREAT FALLS    CLOUDY    48  33  56 SW24G30   29.94F
MALMSTROM AFB  CLOUDY    52  31  43 W20G30    29.94F
HELENA         CLOUDY    49  33  54 S9        29.99F
AUGUSTA        PTSUNNY   46  29  52 S20       29.91F
BOWMANS CRNR     N/A     45  29  52 S21G29    29.92F
CHOTEAU          N/A     46  30  53 S16G22    29.93F
CONRAD           N/A     49  35  58 SE14      29.94F
FAIRFIELD      PTSUNNY   46  30  53 S13       29.92F
POWER          PTSUNNY   46  30  53 SW20G26   29.93F
RAYNESFORD     PTSUNNY   54  27  35 SW15      29.95F
$$

MTZ011-013-016-021-045-047-050-051-292000-
NORTH CENTRAL MONTANA

CITY           SKY/WX    TMP DP  RH WIND       PRES   REMARKS
HAVRE          CLOUDY    55  28  35 SW13G22   29.93F
LEWISTOWN      CLOUDY    50  25  37 SW10      29.97F
N BAR RANCH      N/A     48  23  37 CALM      30.01F
CHINOOK          N/A     55  28  35 SW12      29.93F
DENTON           N/A     53  27  36 W12G21    29.92F
GEYSER           N/A     52  26  36 NW15G21   29.94F
GRASS RANGE      N/A     52  25  35 NW8       29.94F
JUDITH GAP     PTSUNNY   49  26  39 SW22      29.97F
STANFORD         N/A     51  25  35 E3        29.95F
WINIFRED         N/A     52  26  36 SW10G18   29.95F
$$

MTZ017>020-022>027-061-062-292000-
NORTHEAST MONTANA

CITY           SKY/WX    TMP DP  RH WIND       PRES   REMARKS
GLASGOW        SUNNY     56  27  32 W15G24    29.95F
JORDAN           N/A     57  28  33 W9G18     29.98F
SIDNEY         SUNNY     61  30  31 W16G22    29.95F
WOLF POINT     SUNNY     60  29  30 W16G25    29.95F
MALTA          SUNNY     55  28  35 W18G25    29.94F
PLENTYWOOD       N/A     57  28  33 SW16G25   29.93F
POPLAR           N/A     55  28  35 W15G22    29.95F
SCOBEY           N/A     57  26  30 W20       29.91F
$$

MTZ028>42-056>058-292000-
SOUTHCENTRAL AND SOUTHEAST MONTANA

CITY           SKY/WX    TMP DP  RH WIND       PRES   REMARKS
BAKER          SUNNY     59  30  33 W16       30.00F
BILLINGS       CLOUDY    53  30  41 CALM      30.01F
LIVINGSTON     CLOUDY    55  27  34 SW26      30.00F
MILES CITY     MOSUNNY   56  30  37 SW7       30.01F
BIG TIMBER     MOSUNNY   52  28  40 SW9       30.01F
EKALAKA          N/A     56  31  38 W12       29.99F
FORSYTH          N/A     54  27  35 SW6       30.02F
HARLOWTON        N/A     52  25  35 W10       29.99F
LAUREL           N/A     54  29  38 CALM      30.00F
$$

REGIONAL REPORTS...DAKOTAS

CITY           SKY/WX    TMP DP  RH WIND       PRES   REMARKS
WILLISTON      SUNNY     60  34  37 W13       29.94F
MINOT          CLOUDY    59  43  55 S17G28    29.97F
DICKINSON      SUNNY     57  37  47 SW14      29.97F
BEACH            N/A     59  30  33 W14G21    30.01F
TIOGA            N/A     54  50  87 SW16G23   29.96S
WATFORD CITY     N/A     59  43  55 SW12G22   29.94F
BISMARCK       PTSUNNY   61  40  45 S14       30.04F
GRAND FORKS    MOSUNNY   58  46  64 S12       30.10F
FARGO          MOSUNNY   59  40  49 S12       30.12F
BUFFALO SD       N/A     58  35  42 VRB7      29.95F
RAPID CITY     MOSUNNY   52  42  69 N5        30.05F
$$

REGIONAL REPORTS...WYOMING/IDAHO/WASHINGTON

CITY           SKY/WX    TMP DP  RH WIND       PRES   REMARKS
GILLETTE       SUNNY     57  25  29 MISG      30.02F
SHERIDAN       CLOUDY    56  28  34 NE3       30.02F
BUFFALO WY     CLOUDY    56  23  27 SE9       30.03F
CODY           MOSUNNY   54  22  28 W15G22    30.03F
YELLOWSTONE LA   N/A     36  20  52 VRB7      30.16F WCI  30
IDAHO FALLS    PTSUNNY   48  32  53 SW16G25   30.18F
SALMON         CLOUDY    52  30  43 S15G25    30.04F
BOISE          CLOUDY    57  34  41 SE15      30.13F
SPOKANE        LGT RAIN  45  43  93 S8        29.90F FOG
$$

REGIONAL REPORTS...ALBERTA

CITY           SKY/WX    TMP DP  RH WIND       PRES   REMARKS
EDMONTON       FOG       39  37  93 CALM      29.82F VSB 1
CALGARY        CLOUDY    50  18  27 S12       29.80F
LETHBRIDGE     CLOUDY    46  34  61 SW23G31   29.87F
MEDICINE HAT   CLOUDY    55  25  30 W12       29.86F
WATERTON GATE    N/A     45  32  61 SW14G22     N/A
MILK RIVER       N/A     50  32  50 SW10        N/A
$$

REGIONAL REPORTS...SASKATCHEWAN

CITY           SKY/WX    TMP DP  RH WIND       PRES   REMARKS
SWIFT CURRENT  SUNNY     55  25  30 W17G24    29.84F
REGINA         MOSUNNY   55  30  38 W16       29.85F
SASKATOON      MOSUNNY   50  34  53 NW9       29.82F
CYPRESS HILLS    N/A     48  18  29 W10G18      N/A
VAL MARIE        N/A     54  25  32 W17         N/A
ASSINIBOIA       N/A     34  34 100 S5          N/A
$$



USA.gov is the U.S. government's official web portal to all federal, state and local government web resources and services.